Погода в Лимане

Погода в Лимане : погода сейчас, прогноз погоды и архив. Всё, что Вы хотите узнать о погоде в Лимане!

Хотите узнать прогноз погоды в Лимане? Тогда Вам сюда: Погода в Лимане

Поиск расширенной информации на нашем сайте:

Другие новости

Новости СМИ2

Главная страница сайта

Новости сайта

03.07.2017

Напоминаем, что на нашем специализированном сайте Метеоцентр.Азия вы можете получить высокодетализированные автоматические прогнозы погоды по пунктам России, СНГ и мира в авиационном формате (включающие направление и скорость ветра, видимость, явления погоды, количество и форму облачности, нижнюю и верхнюю границу облачности).

Рекомендуем: аренда звукового оборудования цены

Погода в Лимане - сегодня

Время (UTC), дата Ветер
(°,м/с) 
Видим.   Явления Облачность Т
(°С)
Тd
(°С)
f(%) Тe
(°С)
Pmin
(гПа)
dP
(гПа)
Po
(мм)
O2
(г/м3)
Тmin Tmax R s Состояние
почвы
06 15.08.17 040 (СВ) 20000 м    3/0 верхняя 
[Ci fib]
+28.7 +9.7 31 +29  1014.5  0.6  762  276           
09 15.08.17 360 (С) 20000 м    4/0 верхняя 
[Ci]
+30.8 +7.2 23 +31  1014.3  -0.2  762  275           
12 15.08.17 080 (В) 20000 м    10/0 верхняя 
[Cs]
+31.1 +4.7 19 +31  1014  -0.3  762  275           
15 15.08.17 080 (В) 20000 м    10/0 верхняя 
[Cs]
+27 +14.6 47 +35  1015  763  277    +32.6       
18 15.08.17 070 (В) 20000 м    ясно 
+23.2 +16 64 +33  1015.8  0.8  763  280           
21 15.08.17 340 (С) 20000 м    10/0 верхняя 
[Cs]
+19.8 +16.4 81 +32  1015.3  -0.5  763  283           
00 16.08.17 тихо ()   20000 м    9/0 верхняя 
[Cs]
+19.3 +16.8 85 +31  1015.4  0.1  763  283           
03 16.08.17 тихо ()   20000 м    9/0 средняя, верхняя 
[Ac cast|Ci sp]
+18.6 +15.9 84 +28  1015.9  0.5  763  285  +17.7        сухая 
06 16.08.17 060 (СВ) 20000 м    10/0 средняя, верхняя 
[Ac cast|Cs]
+26.4 +16 53 +36  1016.4  0.5  764  277           
09 16.08.17 060 (СВ) 20000 м    10/0 средняя, верхняя 
[Ac trans|Cs]
+30.4 +14.4 38 +38  1015.8  -0.6  763  274           
12 16.08.17 070 (В) 20000 м    8/0 средняя, верхняя 
[Ac cast|Ci sp]
+30.8 +9.2 26 +31  1015.9  0.1  763  275           
15 16.08.17 090 (В) 20000 м    6/0 средняя, верхняя 
[Ac und|Ci sp]
+27.7 +14 43 +34  1016.2  0.3  764  277    +31.9       
18 16.08.17 030 (СВ) 20000 м    6/0 средняя 
[Ac und]
+22.8 +16.7 68 +34  1016.8  0.6  764  280           
21 16.08.17 040 (СВ) 20000 м    10/0 средняя 
[Ac As]
+22.9 +16.6 68 +34  1015.8  -1  763  280           
00 17.08.17 030 (СВ) 20000 м    10/0 средняя 
[Ac As]
+21.7 +15.5 68 +31  1015.3  -0.5  763  282           
03 17.08.17 030 (СВ) 20000 м    9/9 600 м 
[Sc]
+22.3 +15.8 67 +32  1015.4  0.1  763  281  +21.2        сухая 
06 17.08.17 100 (В) 20000 м    6/1 600 м средняя 
[Sc|Ac trans]
+30.6 +11.7 31 +34  1015.9  0.4  763  274           
09 17.08.17 090 (В) 5{10}  20000 м    8/0 средняя 
[Ac und]
+31.8 +11.6 29 +35  1016.4  0.6  764  274           
12 17.08.17 090 (В) 4{11}  20000 м  пыльный позёмок  6/0 средняя, верхняя 
[Ac und|Ci fib]
+29.8 +10.7 31 +32  1016.7  0.3  764  276           
15 17.08.17 060 (СВ) 3{13}  20000 м    6/0 средняя, верхняя 
[Ac trans|Ci sp]
+27.4 +10.8 35 +29  1016.5  -0.2  764  278    +32.1       
18 17.08.17 040 (СВ) 20000 м    ясно 
+20.8 +14 65 +27  1017.1  0.6  764  283           
21 17.08.17 030 (СВ) 20000 м    ясно 
+17.4 +13.8 79 +25  1016.1  -1  763  286           
00 18.08.17 040 (СВ) 20000 м    1/0 верхняя 
[Ci sp]
+17 +13.4 79 +24  1015.6  -0.5  763  287           
03 18.08.17 040 (СВ) 20000 м    6/0 средняя, верхняя 
[Ac trans|Ci sp]
+18.6 +12.7 69 +25  1015.9  0.3  763  285  +16.4        сухая 
06 18.08.17 060 (СВ) 20000 м    10/0 верхняя 
[Cs]
+26.7 +14.2 46 +34  1016.3  0.4  764  277           
Время (UTC), дата Ветер
(°,м/с) 
Видим.   Явления Облачность Т
(°С)
Тd
(°С)
f(%) Тe
(°С)
Pmin
(гПа)
dP
(гПа)
Po
(мм)
O2
(г/м3)
Тmin Tmax R s Состояние
почвы

Для получения пояснительной информации подведите курсор к названию столбца.

ПОГОДА в Лимане - архив

Всё, что Вы хотите узнать о погоде в Лимане - удобно и подробно!

Выберите нужную дату (начиная с 1 января 2015* года) и нажмите кнопку "Найти".
Будут отображены архивные сводки погоды по пункту Лиман, начиная с указанной даты.


Отображать данные в формате CSV (для использования в таблицах Excel)


Внимание! Наш архив погоды предназначен исключительно для личного некоммерческого использования в познавательных целях. Если Вам необходимы официальные справки о состоянии погоды (для производственных, юридических, коммерческих и т.п. целей), обращайтесь в органы Росгидромета.

*Примечание: данная дата относится к архиву по метеостанциям СССР (Россия, СНГ, Балтия).
Архив по метеостанциям Зарубежной Европы и Азии (кроме Китая) хранится 10 дней, по другим регионам земного шара (Китай, Африка, Америка, Австралия, Океания) - 1 день.

Лиман - район местоположения метеостанции


Название, широта, долгота, высота метеостанции:
Лиман 45.8°ш. 47.2°д. -18 м над ур. моря [Российская Федерация]

Дополнительная информация

В oтличие oт бoльшинства пoгoдных сайтoв мы публикуем пoдрoбную метеoинфoрмацию в детальнoм прoфессиoнальнoм фoрмате.

Характеристики температуры и влажнoсти вoздуха измеряются на высoте 2 м в тени вдали oт зданий и деревьев.
Скoрoсть ветра измеряется на высoте 10 м (на урoвне рoста челoвека скoрoсть ветра ниже в 1.5-2 раза). Если метеoстанция нахoдится в гoрoде или в лесу, тo скoрoсть ветра занижена на 2-4 м/с пo сравнению с oткрытым местoм. Скoрoсть ветра над акватoриями крупных рек и oзёр, а также на вершинах хoлмoв на 2-5 м/с выше, чем в oбычных услoвиях.
Атмoсфернoе давление в разных тoчках местнoсти мoжет значительнo oтличаться oт давления на метеoстанции, в зависимoсти oт услoвий рельефа (при пoдъёме на 10 м давление пoнижается примернo на 1 мм рт.ст.).